Hourly Data Report for October 13, 2015

All times are specified in Local Standard Time (LST). Add 1 hour to adjust for Daylight Saving Time where and when it is observed.

BAKER LAKE A
NUNAVUT

64°17'56.000" N
96°04'40.000" W
18.60 m
2300503
71926
YBK

Download Data

Hourly Data (October 2015)
Hourly Data Report for October 13, 2015
Temp Definition
°C
Dew Point Temp Definition
°C
Rel Hum Definition
%
Wind Dir Definition
10's deg

Wind Spd Definition
km/h
Visibility Definition
km
Stn Press Definition
kPa
Hmdx Definition


Wind Chill Definition


Weather Definition


TIME
00:00
01:00 Legend Double Dagger -10.7 -13.1 83 31 20 24.1 100.53   -19 LegendNANA
02:00 Legend Double Dagger -10.9 -13.1 84 31 26 24.1 100.54   -20 LegendNANA
03:00 Legend Double Dagger -9.4 -11.9 82 30 17 24.1 100.58   -16 Mainly Clear
04:00 Legend Double Dagger -8.7 -12.2 76 31 20 24.1 100.60   -16 LegendNANA
05:00 Legend Double Dagger -8.3 -12.8 70 32 18 24.1 100.59   -15 LegendNANA
06:00 Legend Double Dagger -8.2 -12.4 72 32 15 24.1 100.61   -15 Mainly Clear
07:00 Legend Double Dagger -8.0 -12.4 71 30 17 32.2 100.59   -15 LegendNANA
08:00 Legend Double Dagger -8.2 -12.4 72 31 16 32.2 100.62   -15 LegendNANA
09:00 Legend Double Dagger -8.1 -12.7 70 31 20 32.2 100.62   -15 Snow
10:00 Legend Double Dagger -8.4 -12.9 70 33 16 32.2 100.62   -15 Snow
11:00 Legend Double Dagger -7.9 -11.9 73 32 14 32.2 100.63   -14 Snow
12:00 Legend Double Dagger -8.0 -12.0 73 31 18 32.2 100.66   -15 Snow
13:00 Legend Double Dagger -8.1 -11.3 78 32 14 16.1 100.63   -14 Snow
14:00 Legend Double Dagger -8.3 -11.6 77 30 16 24.1 100.63   -15 Snow
15:00 Legend Double Dagger -8.6 -11.8 78 31 18 32.2 100.63   -16 Snow
16:00 Legend Double Dagger -8.8 -11.8 79 31 16 32.2 100.66   -16 Snow
17:00 Legend Double Dagger -9.3 -11.4 85 33 13 32.2 100.68   -15 Snow
18:00 Legend Double Dagger -9.8 -12.2 83 36 14 32.2 100.67   -16 Cloudy
19:00 Legend Double Dagger -10.3 -13.0 81 35 17 24.1 100.70   -18 LegendNANA
20:00 Legend Double Dagger -11.3 -13.3 85 33 15 24.1 100.72   -18 Snow
21:00 Legend Double Dagger -10.9 -12.7 87 31 8 24.1 100.73   -16 Mostly Cloudy
22:00 Legend Double Dagger -9.9 -11.8 86 29 12 24.1 100.70   -16 LegendNANA
23:00 Legend Double Dagger -9.5 -11.6 85 31 10 24.1 100.69   -15 Snow

Notes on Data Quality.

Legend

  • E = Estimated
  • M = Missing
  • NA = Not Available
  • ‡ = Partner data that is not subject to review by the National Climate Archives
Date modified: